NZWNNZQN

Guest
Details From NZWN - Wellington Intl
To NZQN - Queenstown
Flight Number -
Tags decoded
Created
Modified
Stats Distance 353 nm / 655 km
Max Altitude 0 ft / 0 m
Waypoints 5
Social Downloads 1
Likes 0
Share VATSIM

Download

Looking for another format? Having issues loading an existing format? Contact us
Advertisement - Login to hide

Notes

Requested: NZWN SABDA Y622 MESIX H159 CH Y266 NZQN Unmatched points: Y622 Y266

Route

NZWN SABDA MESIX H159 CH NZQN

ID Type Via Altitude Latitude Longitude Leg Dist Tot Dist Heading (true) Name
O NZWN APT - 0 ft / 0 m -41.32684˚ 174.80684˚ - 0 nm - Wellington Intl
SABDA FIX - 0 ft / 0 m -41.79356˚ 174.47561˚ 31 nm 31 nm 208° / 208° -
MESIX FIX - 0 ft / 0 m -43.10939˚ 173.25053˚ 95 nm 127 nm 214° / 215° -
CH VOR H159 (AWY-LO) 0 ft / 0 m -43.50411˚ 172.51464˚ 39 nm 167 nm 233° / 234° CHRISTCHURCH VOR-DME
O NZQN APT - 0 ft / 0 m -45.02055˚ 168.74540˚ 185 nm 353 nm 239° / 242° Queenstown

Altitude Profile

Advertisement - Login to hide

Weather


0- 5 10 15 20 25 30 35+ Temperature / ° C

Clouds and Precipitation
Forecast for 2017-12-16 18:00 UTC. Updated 10 minutes ago

Ground ~20,000 ft ~40,000 ft Winds

NZWN

Details ICAO NZWN (WLG)
Name Wellington Intl
Region New Zealand and Antarctica
Timezone Pacific/Auckland (UTC+13.0)
Stats Elevation 42 ft / 13 m (AMSL)
Location -41.326843° 174.806842°
Runways 1
Magnetic Variation 22.589° E

METAR

NZWN 161530Z AUTO 02013KT 9999 NCD 18/15 Q1015 NOSIG

Decode

TAF

TAF NZWN 160514Z 1606/1706 16010KT 9999 FEW020 BECMG 1606/1608 36005KT BECMG 1700/1702 36015KT

Decode

Departure Runways

ID Width Length Bearing (true) Bearing (mag) Surface Threshold Offset Overrun Length
16 148 ft / 45 m 6,555 ft / 1,998 m 182.80° 160.21° Asphalt 200 ft / 61 m 197 ft / 60 m
34 148 ft / 45 m 6,555 ft / 1,998 m 2.80° 340.21° Asphalt 351 ft / 107 m 197 ft / 60 m

NZQN

Details ICAO NZQN (ZQN)
Name Queenstown
Region New Zealand and Antarctica
Timezone Pacific/Auckland (UTC+13.0)
Stats Elevation 1,171 ft / 357 m (AMSL)
Location -45.020546° 168.745402°
Runways 3
Magnetic Variation 24.419° E

METAR

Not found

TAF

TAF AMD NZQN 161458Z 1614/1706 22008KT 9999 BKN070 FM162300 28010KT 9999 -RA BKN030 TEMPO 1623/1706 5000 RA PROB30 TEMPO 1700/1706 3000 TSRA SCT020CB FM170500 18015KT 9999 -SHRA BKN030 TEMPO 1705/1706 7000 SHRA

Decode

Destination Runways

ID Width Length Bearing (true) Bearing (mag) Surface Threshold Offset Overrun Length
05L 121 ft / 37 m 2,516 ft / 767 m 75.96° 51.54° Grass 0 ft / 0 m 0 ft / 0 m
05R 116 ft / 35 m 6,056 ft / 1,846 m 75.96° 51.54° Asphalt 367 ft / 112 m 0 ft / 0 m
14 167 ft / 51 m 3,157 ft / 962 m 161.16° 136.74° Grass 33 ft / 10 m 0 ft / 0 m
23L 116 ft / 35 m 6,056 ft / 1,846 m 255.94° 231.52° Asphalt 187 ft / 57 m 0 ft / 0 m
23R 121 ft / 37 m 2,516 ft / 767 m 255.96° 231.54° Grass 0 ft / 0 m 0 ft / 0 m
32 167 ft / 51 m 3,157 ft / 962 m 341.16° 316.74° Grass 66 ft / 20 m 0 ft / 0 m

Popular Alternatives